Theta_e
298 298 298 298 298 299 300 301 301 301 302 302 303 303 303 304 303 303 301 301 301 302 304 304 304 304 304 304 304 304 305 305 306 307 307 308 308 308 309 310 310 309 307 306 307 308 308 308 308 308 308 309 310 310 310 310 310 310 311 311 312 312 312 313 312 311 312 312 313 312 313 313 312 313 312 312 313 313 313 313 314 314 312 315 315 313 320
298 298 298 298 298 299 300 300 301 301 301 302 303 304 304 304 303 303 302 301 302 303 304 304 304 304 305 304 305 305 305 305 306 307 308 309 309 310 310 310 310 310 308 307 307 308 308 308 308 309 308 309 309 309 310 310 310 311 312 312 311 311 312 313 312 312 312 313 312 312 312 313 313 313 313 313 313 314 314 314 315 314 312 314 313 312 321
298 297 297 298 298 299 300 300 301 301 301 302 304 304 304 304 304 303 303 302 302 303 304 304 304 304 304 305 306 307 307 307 307 307 308 309 310 311 311 311 310 309 309 308 308 308 308 308 308 309 309 309 308 309 310 310 310 311 312 313 312 311 312 313 312 312 312 312 312 312 312 312 313 313 313 313 313 314 314 314 314 313 312 314 312 312 323
297 297 297 297 297 298 300 300 301 301 301 302 304 304 304 305 304 304 303 303 303 303 303 303 303 304 305 306 307 307 308 309 308 307 308 309 311 312 312 312 310 308 308 309 308 308 309 309 308 309 309 308 307 309 310 310 311 312 312 313 312 312 313 314 313 313 312 312 313 313 313 313 312 313 313 313 313 314 315 313 312 313 312 313 312 315 324
297 297 296 297 297 298 299 300 302 302 302 302 303 303 304 304 304 304 304 304 304 304 305 304 304 305 305 306 306 307 308 309 309 308 308 308 311 313 312 312 311 309 308 309 309 308 308 309 309 309 310 309 308 308 309 310 312 312 311 312 312 312 312 313 314 315 314 314 314 314 314 313 312 313 314 314 314 314 314 314 313 313 314 313 315 317 321
297 297 296 296 298 299 299 300 301 302 302 302 303 303 304 305 304 304 304 305 305 305 305 306 306 306 306 306 306 308 309 308 309 308 308 309 311 313 313 312 311 310 309 310 310 309 309 310 311 311 311 310 308 307 308 309 312 311 309 311 313 311 311 313 314 315 314 315 315 314 314 313 313 314 314 314 315 314 315 314 314 315 315 314 318 318 316
297 296 296 296 297 298 297 298 301 303 303 302 302 302 303 303 303 304 304 304 305 306 306 307 308 308 308 307 307 309 309 309 309 309 310 311 311 312 314 313 312 312 311 310 310 311 311 310 312 313 312 310 309 308 308 308 310 310 309 311 313 312 312 313 313 313 314 316 316 314 314 314 314 314 313 314 315 314 315 315 314 316 316 316 319 319 316
296 296 295 296 297 298 297 297 299 302 303 303 302 301 301 301 302 302 302 304 305 307 307 308 309 309 309 309 308 309 309 310 310 309 310 312 311 312 314 314 312 312 312 311 313 316 316 314 313 314 314 312 311 310 309 309 309 309 310 312 313 312 312 313 312 311 314 317 316 315 314 315 315 314 313 314 315 315 315 316 315 317 317 317 319 318 318
297 296 295 296 297 298 298 298 298 300 302 303 302 301 301 301 301 301 302 304 306 307 308 309 309 309 309 309 309 310 310 311 311 310 310 311 310 311 313 314 314 314 314 315 315 316 318 318 316 316 316 315 313 313 312 310 310 310 311 313 313 311 312 313 312 310 312 316 316 316 316 316 315 315 315 315 315 315 316 316 316 317 317 317 318 317 318
296 296 295 296 296 297 298 298 298 298 300 302 301 301 302 301 302 302 301 303 306 307 308 309 309 309 310 310 310 310 310 311 311 310 310 311 311 311 312 313 315 316 315 316 315 315 317 318 318 318 318 317 316 317 315 311 310 311 312 313 312 311 311 313 312 310 312 315 317 317 316 315 314 316 319 319 316 317 318 319 320 320 317 317 317 315 318
297 296 296 295 296 296 297 297 298 298 300 301 301 302 302 302 302 302 301 303 306 307 308 309 309 309 310 310 311 311 311 311 311 311 311 312 312 312 312 314 315 315 314 314 314 315 316 317 318 318 317 317 317 318 316 313 311 312 312 311 312 311 311 313 312 310 311 316 318 316 314 315 317 319 321 322 321 319 318 319 320 319 318 320 321 320 323
296 296 296 295 296 296 296 297 297 298 300 301 301 302 302 302 302 303 302 304 307 308 307 308 309 309 310 311 311 311 311 311 312 312 312 312 313 313 313 314 314 313 312 312 314 316 317 317 317 317 316 317 317 317 316 314 313 313 313 312 312 312 311 313 313 311 312 316 317 314 314 317 321 320 319 320 321 321 319 320 320 318 320 323 323 324 327
296 296 296 295 296 296 296 297 297 298 300 302 303 303 303 303 303 304 304 304 306 308 307 307 309 310 311 312 312 312 312 312 312 313 313 313 314 314 313 313 313 313 312 313 315 317 317 316 316 315 315 315 315 316 317 316 314 314 313 313 314 313 311 312 313 312 313 316 315 313 316 320 322 320 318 317 320 320 319 320 320 319 321 321 320 322 326
296 296 296 296 296 296 296 297 297 297 299 302 303 304 304 304 303 303 304 305 306 307 308 308 309 310 311 311 312 312 313 312 313 313 313 313 314 315 314 313 313 313 313 314 316 316 315 314 313 313 313 313 314 316 318 318 316 315 314 314 314 313 312 312 313 314 314 314 314 314 316 319 322 323 321 320 322 321 319 318 318 319 320 320 320 323 326
296 296 296 296 296 296 296 296 297 297 298 300 303 303 303 304 304 304 304 305 305 307 309 309 309 309 311 311 312 312 312 312 312 313 313 314 314 314 313 313 312 313 314 316 316 315 314 313 312 312 312 312 312 314 316 318 317 316 316 315 314 313 313 313 313 314 314 313 314 315 315 315 319 323 324 323 324 324 322 319 319 321 321 320 321 324 325
296 296 296 296 296 296 296 296 296 297 297 299 301 302 302 302 302 303 304 304 305 308 309 310 309 309 311 311 312 312 312 311 312 312 314 314 314 313 313 312 313 314 315 317 316 315 314 313 313 312 313 313 313 313 315 317 318 318 316 315 314 314 314 313 313 313 314 313 313 315 315 314 317 323 325 323 322 324 323 319 319 322 323 321 321 324 326
295 296 296 296 296 296 296 296 296 296 297 298 299 302 302 301 300 302 304 305 305 308 309 309 309 310 311 310 311 312 312 312 311 312 313 313 313 313 313 313 314 314 315 316 316 315 314 313 313 313 314 316 316 314 315 316 318 319 317 315 314 314 314 314 313 313 313 313 313 313 314 317 321 324 323 321 321 323 322 318 318 323 324 322 321 324 326
294 295 296 296 296 296 296 296 296 296 297 297 298 300 302 301 300 301 304 305 306 308 309 309 309 309 310 310 311 312 312 312 312 312 312 313 314 313 314 315 315 314 315 316 316 315 314 314 315 314 315 317 317 316 315 316 317 319 318 316 315 314 313 313 312 312 313 314 314 313 314 319 322 322 321 320 321 321 320 318 319 322 323 322 323 325 325
293 294 296 296 296 296 296 296 296 296 297 297 298 299 301 301 300 300 302 305 306 307 308 308 308 309 309 309 310 311 311 312 312 312 312 313 314 313 313 314 315 314 315 316 316 315 315 315 316 316 315 316 317 316 316 316 317 319 319 317 316 315 313 313 313 313 313 314 313 313 314 318 321 321 320 320 320 318 319 319 319 321 322 322 323 324 325
293 293 295 296 296 296 296 296 296 296 297 297 298 298 300 300 300 299 301 303 304 306 307 308 308 309 309 309 309 309 309 312 313 313 312 313 313 313 313 314 314 315 315 316 315 315 315 316 317 316 316 317 318 317 316 317 317 318 318 319 318 316 314 313 313 313 313 313 314 313 314 317 320 321 320 319 319 319 321 321 320 321 322 322 322 324 324
293 293 294 295 296 296 296 296 296 296 297 297 297 298 299 300 299 299 300 302 303 305 307 307 307 307 308 308 308 307 308 311 313 313 313 314 313 313 313 313 315 314 313 314 315 315 315 317 316 316 316 317 317 317 316 316 317 318 318 319 319 318 315 314 313 314 313 313 314 315 316 319 321 321 319 320 319 318 320 323 322 322 322 322 323 324 323
292 293 293 294 296 296 296 296 296 296 297 297 297 298 299 299 299 299 300 302 303 305 306 306 306 306 306 306 306 307 307 309 310 311 313 314 314 314 313 315 316 313 310 312 315 315 315 316 316 315 316 316 316 316 316 314 315 318 318 317 317 318 318 317 316 316 316 315 316 318 319 320 321 319 319 319 318 316 317 321 322 322 322 322 322 323 322
291 292 293 293 295 296 296 296 296 296 296 297 297 298 299 299 299 299 301 303 304 306 306 306 306 307 307 307 306 307 307 307 308 309 310 312 314 314 314 315 315 312 310 311 314 316 316 316 316 316 316 316 316 316 315 314 314 317 318 317 318 319 318 318 318 318 317 317 318 319 319 320 320 318 316 316 316 315 316 319 321 321 321 321 322 322 322
291 292 292 292 294 296 296 296 296 296 296 297 297 297 298 299 298 300 303 305 305 307 308 308 308 308 307 307 307 307 306 307 308 307 308 311 313 313 314 314 313 314 314 312 313 315 315 315 315 315 315 316 316 315 314 314 314 315 316 316 318 318 318 318 318 318 317 317 318 319 319 319 319 318 316 315 315 315 315 318 320 319 319 320 320 321 321
291 291 292 291 293 295 296 296 296 296 297 297 297 297 298 298 298 302 305 305 306 307 309 309 309 307 306 307 307 307 306 307 308 308 308 309 311 312 314 313 312 313 315 313 313 314 315 314 315 315 316 316 316 315 315 314 315 316 315 315 318 318 317 317 318 318 317 317 319 319 318 317 317 317 317 317 317 315 315 316 317 317 317 318 318 319 319
291 291 291 291 291 294 296 296 296 296 297 297 297 297 297 297 300 305 307 306 306 307 308 308 309 308 307 307 307 307 306 307 308 309 308 308 309 310 313 313 313 313 314 313 313 315 314 314 314 314 315 316 316 316 316 315 316 315 315 316 317 316 316 317 317 317 317 318 319 319 318 318 317 317 317 317 317 316 316 315 316 317 317 317 317 317 317
291 291 291 291 291 292 295 296 296 296 297 297 297 297 297 298 303 307 307 306 307 308 308 307 309 308 307 307 307 306 306 307 308 309 308 308 309 309 310 311 313 314 315 314 313 313 313 313 313 314 315 316 316 316 316 316 316 315 316 317 317 316 316 317 316 316 316 317 319 319 318 319 319 318 317 317 316 316 316 316 316 317 318 317 317 317 317
291 291 291 291 291 291 293 295 296 296 297 297 297 297 298 301 304 307 307 306 306 307 307 307 308 308 308 307 307 306 306 306 307 308 308 308 309 309 309 311 313 315 316 315 313 312 312 313 313 314 314 315 315 316 316 316 315 315 316 317 317 316 318 318 316 316 317 317 318 318 318 319 319 317 316 316 316 316 317 317 317 317 317 317 317 317 316
290 291 291 291 291 291 292 294 296 296 297 297 297 297 300 304 305 306 307 304 303 305 307 307 308 309 308 307 307 307 306 305 306 308 308 308 308 308 309 311 313 315 315 313 312 313 313 313 313 314 314 314 315 316 315 315 315 316 317 317 317 317 317 317 317 318 318 317 316 316 318 318 316 314 314 315 315 315 317 317 317 317 317 316 316 316 316
290 291 291 290 290 291 291 293 295 296 297 297 297 297 302 305 306 306 305 302 302 305 306 306 307 308 307 307 307 307 307 306 306 307 307 308 309 309 310 311 311 312 312 312 312 313 313 312 313 313 312 312 314 315 315 315 315 316 316 316 316 315 315 315 316 317 317 315 314 314 315 315 313 312 313 313 313 314 315 315 315 316 316 316 316 316 316
290 291 291 290 290 291 291 293 295 296 296 297 296 298 303 307 307 306 304 300 302 305 306 306 307 308 308 308 308 306 305 306 306 306 306 307 308 308 308 310 310 310 311 312 312 311 312 312 312 314 313 311 311 314 315 315 315 316 316 316 315 315 315 315 314 314 314 313 312 312 313 313 312 313 313 313 312 313 313 313 313 314 314 314 315 315 315
290 291 291 290 290 291 291 292 294 295 296 296 296 298 302 304 304 304 302 299 301 305 306 307 307 308 308 308 308 306 305 306 307 307 307 308 309 308 308 308 309 309 310 311 311 311 311 311 312 314 314 311 311 313 314 313 314 316 317 315 314 314 314 314 313 312 312 312 312 314 315 314 313 314 314 312 312 312 312 312 312 312 312 313 314 314 314
290 290 291 290 290 291 291 292 294 295 296 297 297 298 298 298 298 299 298 297 302 305 306 307 307 307 307 308 308 307 306 307 308 308 307 307 308 309 309 309 309 308 309 310 310 310 310 310 311 313 312 311 311 313 313 313 315 316 316 315 314 314 313 313 313 312 312 311 312 314 315 315 313 312 311 311 310 311 311 311 311 311 312 312 313 313 313
290 290 290 290 290 291 291 292 294 296 296 297 297 298 297 297 298 297 296 297 302 306 305 306 307 307 306 308 308 307 306 307 308 308 307 306 306 308 309 310 309 309 309 309 310 310 310 310 311 311 311 311 311 312 312 313 315 316 314 314 314 313 312 312 312 312 312 311 311 311 311 312 311 311 310 310 310 310 310 310 310 311 311 312 313 313 313
290 290 290 290 290 291 292 294 295 296 297 297 298 298 297 297 298 299 297 300 304 307 306 306 307 306 305 307 308 307 306 307 308 308 307 306 306 307 309 309 309 308 308 309 309 310 310 310 309 309 311 311 310 310 311 313 315 315 314 314 313 313 313 314 313 312 311 311 310 310 310 310 311 311 311 310 310 309 310 310 310 311 311 312 312 312 312
290 290 290 290 291 292 294 296 296 297 299 300 299 298 297 298 299 300 300 301 304 306 306 306 306 305 305 307 307 306 307 307 308 308 307 306 306 306 307 308 308 308 308 308 309 309 309 309 308 309 309 309 309 310 312 312 314 315 315 314 313 313 314 314 313 312 311 310 310 310 311 311 311 311 311 310 310 310 310 310 310 311 311 311 311 311 311
290 290 290 291 293 295 297 298 298 298 300 299 298 298 299 300 301 301 302 302 303 303 304 306 305 305 307 307 306 307 307 307 308 308 307 306 306 306 306 306 306 306 307 308 308 308 308 308 308 308 307 307 308 310 312 312 313 315 315 314 313 313 313 313 312 311 311 311 310 310 311 311 311 311 310 310 310 310 310 310 310 311 311 311 310 310 310
290 290 291 293 296 299 301 301 299 299 300 299 299 299 300 301 302 303 303 304 304 303 304 305 305 306 307 307 306 307 306 307 308 308 306 305 306 305 304 305 305 305 306 307 307 306 307 307 307 306 306 307 308 310 310 311 312 314 314 313 312 312 311 311 311 311 312 312 311 311 311 311 311 310 310 310 310 309 310 310 310 310 310 310 310 309 309
292 292 292 294 297 300 301 301 300 300 301 300 301 302 302 302 302 303 305 305 305 306 306 306 306 307 308 307 307 308 307 306 307 307 306 305 305 305 304 305 304 304 305 305 306 305 306 306 306 306 306 307 309 310 310 309 310 312 312 312 311 311 311 311 311 312 312 312 311 311 311 311 311 310 310 310 309 309 309 309 309 309 310 310 309 308 308
293 293 294 295 297 298 299 299 300 301 301 302 302 303 304 303 302 303 305 305 306 306 307 307 307 308 308 308 307 308 307 306 307 307 307 305 305 305 305 304 304 304 304 304 305 306 306 305 305 305 305 306 309 311 310 310 310 311 311 311 311 310 311 311 311 311 311 311 310 310 310 310 310 310 310 310 309 309 309 309 309 309 309 309 308 308 307
294 294 294 295 296 297 297 298 299 300 302 303 303 303 303 303 303 303 304 305 305 306 307 308 308 309 308 307 307 308 308 307 306 306 306 305 304 304 304 305 304 303 303 304 305 305 305 305 305 305 305 306 309 311 311 311 311 311 311 311 311 310 310 311 311 310 310 310 310 310 310 309 309 309 309 309 309 309 309 309 309 309 309 308 307 307 307
292 292 293 294 295 297 298 299 300 301 303 303 303 303 303 303 303 303 304 304 305 306 306 307 308 308 307 307 307 308 308 306 305 305 305 305 303 303 304 304 303 303 303 304 305 305 305 304 304 305 306 307 308 310 312 312 312 311 311 310 310 309 310 310 310 310 310 310 310 310 309 309 309 309 309 309 309 309 308 308 308 308 307 307 307 307 307
291 292 294 295 296 298 299 300 301 302 303 303 302 303 303 303 303 304 304 304 304 305 305 305 306 305 305 305 306 307 306 304 304 306 305 304 303 303 303 303 303 303 304 304 305 305 305 304 303 305 306 307 307 310 312 312 312 311 311 310 309 309 309 310 310 310 309 309 309 309 309 309 309 309 309 308 308 308 308 308 308 307 307 306 307 307 307
292 294 296 297 298 299 300 301 302 303 303 303 303 303 303 303 303 304 304 304 304 305 305 305 305 306 306 305 306 306 305 304 304 305 305 304 303 303 303 303 303 304 304 304 304 304 303 303 304 305 306 306 306 309 312 312 311 311 311 310 309 309 309 309 310 309 309 308 309 309 308 308 308 308 308 308 308 307 307 307 307 306 306 307 307 307 307
293 297 298 299 299 300 300 301 302 302 303 303 303 303 303 303 304 304 304 304 304 305 304 304 305 306 306 305 305 305 305 305 304 304 304 304 303 303 303 303 303 303 303 303 303 303 302 303 305 306 306 306 307 309 311 312 311 311 311 310 309 308 309 309 310 309 309 308 308 308 308 308 308 308 307 307 307 307 307 307 307 306 306 307 306 306 307
295 297 298 299 300 300 300 301 301 302 303 303 303 303 304 304 305 304 303 303 304 304 304 304 305 306 306 306 305 305 305 305 304 304 304 304 303 303 303 303 303 303 302 302 302 302 302 304 305 306 306 306 307 309 311 311 311 311 311 310 309 309 309 309 309 309 309 308 308 308 308 308 308 308 307 307 307 306 306 306 307 306 306 307 307 307 306
296 297 298 299 300 299 300 301 302 302 303 303 303 304 303 303 303 303 301 301 302 303 303 303 304 304 305 305 305 305 305 305 304 303 303 303 303 303 303 303 303 303 302 302 302 302 303 304 306 306 306 305 307 309 310 311 311 311 311 310 310 309 309 309 309 309 308 308 308 308 308 308 308 308 307 307 307 306 306 306 306 306 306 306 307 306 306
296 297 298 299 300 300 300 301 302 302 302 302 302 302 302 302 303 302 301 301 301 302 303 304 305 304 304 304 305 305 305 305 304 303 303 303 303 302 302 302 302 302 302 302 303 304 305 305 306 306 304 304 306 309 309 310 311 311 311 310 310 309 309 309 309 308 308 308 308 308 308 308 308 307 307 307 307 306 306 306 306 306 305 306 306 306 305
295 296 297 298 299 301 302 302 303 303 302 301 301 301 301 302 303 302 300 300 301 302 302 303 304 304 304 304 304 304 305 305 304 303 303 303 302 302 302 302 302 302 303 303 304 305 306 306 307 306 304 303 305 308 310 310 310 311 311 310 309 309 309 308 308 308 308 308 308 308 308 308 307 307 307 307 307 306 306 306 306 306 305 305 305 305 305
294 295 297 297 299 301 302 302 302 302 302 302 302 302 301 302 302 301 300 300 301 302 302 303 303 304 304 304 304 304 304 305 304 304 303 303 303 302 302 302 302 303 304 305 305 306 306 306 306 307 305 304 304 308 309 309 309 310 310 309 309 309 309 308 308 307 308 308 308 308 308 307 307 307 307 307 306 306 305 305 305 305 305 304 304 305 304
294 295 296 298 299 301 301 301 301 302 302 302 302 301 301 302 302 301 299 299 301 303 303 304 304 304 303 303 304 304 304 304 304 304 304 304 304 303 303 304 304 304 305 306 306 306 306 306 306 307 307 305 304 306 308 308 308 309 310 309 308 308 309 308 308 307 307 307 307 307 307 307 307 307 307 306 306 305 305 305 305 305 304 305 305 305 305
295 296 297 298 299 299 300 301 301 301 302 302 301 300 300 301 301 299 298 300 302 303 303 303 303 303 303 303 303 304 304 304 303 304 304 304 304 304 304 305 305 305 306 306 306 306 307 306 305 305 305 305 305 306 306 306 307 309 309 309 308 308 308 308 308 308 308 307 307 307 307 307 306 307 307 306 306 305 305 305 305 305 305 305 305 305 305
Wind_Speed
23 24 24 24 24 22 21 22 22 19 14 11 9 6 4 4 4 5 5 4 4 6 4 3 3 4 5 6 9 10 6 4 5 3 3 6 5 4 3 3 2 4 7 10 12 10 7 9 7 8 12 7 6 18 24 21 18 12 8 9 7 2 4 7 7 8 8 5 6 10 10 10 12 12 11 11 10 11 9 7 6 8 8 6 5 5 4
23 23 23 24 24 22 20 21 22 18 13 11 10 6 5 5 5 5 6 5 5 4 3 3 4 5 7 8 9 8 5 4 4 3 2 2 2 3 4 4 2 3 6 9 12 9 5 6 6 8 11 5 5 20 29 23 17 12 8 9 8 5 6 7 7 8 8 7 8 10 11 10 9 9 12 12 12 13 11 7 5 7 11 11 9 6 4
22 23 23 24 24 22 20 21 22 18 10 8 8 6 6 5 4 4 5 6 6 5 4 4 5 6 8 8 7 7 2 4 3 5 3 1 1 0 3 2 2 5 6 8 10 7 4 5 5 7 9 5 4 19 29 24 18 15 12 12 10 6 5 7 8 8 9 9 8 8 10 9 8 9 13 14 15 15 11 7 6 7 9 12 10 7 4
22 23 23 23 24 23 21 20 21 18 11 7 8 6 6 5 2 2 3 4 5 7 7 5 4 5 8 6 6 9 7 2 1 3 2 1 1 1 1 2 5 9 9 9 9 8 6 6 7 9 8 5 6 16 25 24 19 14 11 12 10 4 5 8 8 6 7 8 7 6 8 10 10 12 14 15 15 15 12 8 8 7 7 9 11 8 6
22 22 22 23 24 23 22 21 20 18 12 9 8 7 5 3 1 2 3 3 4 5 5 4 4 6 6 4 5 8 9 6 2 1 2 2 2 1 2 3 7 12 12 10 9 9 9 8 9 10 8 7 9 13 18 21 18 13 11 13 10 4 6 10 8 3 1 1 4 6 8 12 13 14 15 14 15 16 14 11 9 8 7 8 10 10 8
21 22 21 22 23 23 23 23 20 18 15 11 9 7 5 3 2 4 6 4 4 4 6 8 7 7 4 2 5 8 10 10 6 3 4 3 2 1 3 5 6 11 11 8 8 9 9 9 9 8 8 10 11 11 11 13 13 12 13 14 9 4 6 9 8 4 2 4 5 4 6 10 12 14 15 15 16 18 16 14 13 10 8 6 8 12 12
21 21 21 21 22 22 24 24 20 17 16 13 11 7 5 5 5 6 7 6 7 8 11 11 8 5 3 1 4 8 10 10 7 4 3 3 5 5 4 8 6 7 8 8 8 7 6 7 7 7 9 11 11 10 9 9 10 12 13 11 7 6 5 7 9 7 3 2 3 2 3 6 8 12 15 15 17 18 17 16 16 14 11 8 7 12 13
20 20 20 20 21 23 24 25 21 17 15 13 12 11 8 6 5 8 10 8 8 10 11 9 6 5 5 4 5 7 8 9 7 4 5 6 6 6 8 9 6 7 7 7 7 5 4 4 6 7 9 9 9 8 7 8 11 13 11 8 7 6 3 6 8 7 6 5 2 2 4 4 6 10 13 14 16 18 17 16 16 14 13 11 8 11 10
19 19 19 19 21 22 24 25 23 20 16 12 11 11 11 8 6 7 9 7 7 9 8 6 5 5 5 6 6 7 8 9 7 5 6 7 5 6 9 8 5 8 9 8 8 6 6 4 3 3 4 5 5 5 7 11 12 11 10 8 8 7 3 5 7 7 7 7 5 5 4 5 8 10 12 14 14 14 14 13 13 13 14 12 10 10 8
18 18 18 19 20 21 23 24 24 24 20 14 11 11 11 11 9 7 6 4 5 7 6 6 6 4 5 8 8 7 8 9 7 4 4 5 4 6 9 7 3 7 9 8 7 7 6 3 3 2 2 2 4 3 5 14 14 10 9 7 7 9 5 4 7 7 6 6 5 4 4 7 8 7 7 10 12 11 10 8 10 13 13 11 10 11 8
18 18 17 18 19 20 22 23 24 25 21 15 13 12 9 9 9 8 5 3 5 8 6 6 6 6 9 11 9 7 7 7 7 5 3 4 6 7 8 7 3 5 6 8 9 7 3 0 1 3 3 4 5 4 5 12 13 12 11 7 7 10 8 5 6 6 6 7 5 3 7 7 4 1 2 2 5 11 12 10 11 14 12 6 5 6 7
17 17 17 17 17 18 20 21 23 25 22 15 12 10 8 8 7 6 4 3 5 8 6 5 7 8 11 11 9 8 7 7 6 5 3 4 7 7 6 7 6 3 4 8 7 1 6 7 6 6 6 6 7 7 7 9 9 10 12 10 9 10 9 6 5 5 5 6 5 7 9 4 2 3 2 2 1 5 9 9 10 13 12 8 6 6 10
16 17 16 16 17 17 19 20 21 23 23 18 13 11 11 9 5 5 5 3 5 7 6 7 9 10 10 10 9 8 7 6 5 4 3 3 4 5 5 6 6 4 5 8 4 4 9 9 8 8 8 8 8 8 7 7 6 7 10 10 9 10 9 6 5 5 4 5 7 8 3 2 4 3 2 2 1 3 7 6 9 13 13 13 12 10 9
15 15 15 15 16 16 17 19 19 21 22 19 15 13 14 11 6 5 5 3 4 6 6 6 8 10 11 10 9 7 6 6 5 4 3 2 3 4 4 3 4 4 6 6 2 6 7 7 7 7 7 7 6 6 6 6 4 5 9 8 8 9 9 7 5 5 4 5 8 6 1 2 5 3 5 7 4 5 8 6 8 14 14 13 12 9 9
14 14 15 14 15 15 16 17 18 19 20 19 15 13 14 14 9 5 4 4 5 5 4 5 7 11 11 11 10 7 5 6 4 2 2 2 2 3 3 2 1 2 4 4 3 6 5 5 7 8 7 7 6 5 5 5 4 3 5 7 7 8 8 8 7 5 5 7 8 7 6 7 5 3 7 9 4 3 5 5 5 12 16 17 14 10 12
14 14 13 13 13 14 15 16 17 18 19 19 16 11 10 14 13 7 5 5 4 3 6 7 8 10 10 9 8 7 5 5 4 1 3 4 5 5 4 4 4 5 3 3 2 3 3 5 7 7 5 5 6 6 5 6 5 4 3 6 8 9 8 7 7 6 6 8 8 8 8 6 4 5 7 9 6 3 4 6 5 9 17 21 17 13 15
15 13 13 13 13 13 13 14 16 17 17 18 17 11 8 13 16 10 5 5 6 7 7 7 8 8 8 7 6 6 6 4 3 2 2 4 5 5 4 3 5 5 3 3 1 2 3 4 6 7 4 2 3 4 5 6 5 5 5 7 9 9 7 7 8 7 7 8 8 7 6 2 4 6 7 8 6 3 5 7 3 4 13 21 20 18 20
14 14 13 12 12 12 12 13 14 16 17 18 18 12 8 12 15 11 6 7 6 6 6 6 8 9 7 6 7 7 6 4 2 2 0 2 4 5 3 1 2 2 3 2 1 2 3 3 3 4 4 2 1 2 4 6 5 5 7 7 8 8 7 7 9 8 8 9 8 7 5 3 6 6 8 9 7 4 6 5 2 3 9 15 17 19 22
14 14 13 12 12 12 12 12 13 15 16 17 17 14 9 11 14 12 9 6 5 8 10 9 8 8 6 7 8 6 5 3 2 3 1 2 3 4 2 1 2 1 2 1 0 1 3 3 1 1 3 3 1 1 2 3 3 4 7 7 7 7 7 7 8 8 8 8 7 8 5 3 6 8 8 7 5 4 3 1 2 4 10 13 13 15 19
13 14 13 12 12 11 12 12 12 14 15 17 18 17 13 12 15 14 11 8 8 12 14 10 8 8 8 8 9 8 5 2 2 3 3 3 4 5 3 3 2 1 0 0 1 0 1 2 2 0 2 3 2 1 1 2 1 1 3 4 4 5 6 7 7 7 6 6 8 8 5 4 12 14 8 4 4 1 1 1 1 4 11 13 13 14 16
12 13 13 12 11 11 11 11 12 13 14 15 18 18 14 14 16 16 13 10 9 10 10 11 12 11 8 8 10 10 9 5 3 5 5 4 5 5 1 2 3 2 1 2 1 1 1 1 2 1 0 2 1 1 1 2 3 1 1 2 2 3 5 5 5 6 6 7 7 4 2 6 15 11 3 1 0 5 4 1 1 4 11 14 13 14 16
13 12 12 12 11 11 11 11 12 12 13 15 16 17 16 16 17 18 16 12 11 12 11 11 10 7 6 7 7 6 7 7 6 5 6 6 5 3 1 2 3 2 3 3 1 1 1 0 1 1 1 1 1 2 1 2 3 3 2 2 2 1 1 2 2 3 4 4 1 2 4 5 10 4 5 3 1 5 5 2 1 4 9 12 13 14 16
13 13 12 12 11 11 10 11 12 12 13 14 15 16 17 17 18 20 17 13 14 18 16 11 8 8 9 10 9 7 5 5 4 4 6 5 2 1 1 3 4 4 4 2 2 3 1 1 1 1 0 0 1 2 3 3 2 2 2 3 1 2 2 1 2 1 2 2 1 2 1 4 8 3 4 3 0 3 4 2 0 3 7 9 10 13 16
14 13 12 12 12 11 10 11 12 12 13 14 14 15 17 17 19 20 15 10 12 15 12 9 8 10 11 9 8 8 8 7 5 3 5 6 4 1 2 4 4 3 5 4 4 5 3 1 1 2 1 0 2 3 3 4 2 0 1 3 3 3 2 3 3 1 2 2 2 3 0 2 6 6 2 1 3 2 2 3 1 2 5 8 10 12 16
14 12 12 12 12 11 11 11 12 13 14 14 14 15 15 15 17 16 11 7 8 8 6 6 8 11 12 8 6 8 10 7 5 3 3 5 5 3 1 1 1 0 1 2 4 5 4 2 1 2 1 0 2 2 1 2 0 0 2 3 2 4 3 4 4 4 3 1 2 3 1 2 6 9 6 3 3 4 2 2 1 3 5 8 9 12 16
14 12 12 12 12 12 11 11 12 13 14 14 14 14 14 14 15 12 7 6 7 5 4 5 9 13 13 7 5 7 8 6 4 3 4 3 4 5 5 6 6 5 3 4 4 5 5 3 2 3 1 1 1 2 1 0 0 1 3 1 4 3 3 2 3 4 6 4 1 3 4 4 6 10 10 6 4 3 4 4 3 4 7 8 9 12 16
15 12 11 12 13 12 12 11 12 13 15 14 12 12 13 12 10 6 4 6 6 5 4 7 14 17 12 5 5 8 7 5 4 3 3 4 3 4 6 8 7 6 5 4 3 4 5 3 2 2 1 1 1 2 2 1 1 3 4 1 4 3 4 2 3 5 5 2 1 0 3 2 3 6 10 10 8 5 5 6 6 6 8 10 11 13 15
15 13 12 12 13 13 12 12 12 13 15 14 11 11 11 8 5 2 2 6 6 5 7 13 18 16 8 3 6 10 8 4 4 3 2 3 2 3 4 6 7 6 5 4 3 3 4 2 1 0 1 1 1 2 1 1 2 4 3 3 4 4 3 1 3 4 2 3 5 4 3 1 3 2 5 9 11 9 6 6 7 7 9 11 13 15 16
16 13 12 12 13 13 12 12 12 13 15 14 11 9 7 5 4 3 3 5 7 7 10 14 14 11 7 5 6 9 9 6 3 4 3 2 2 2 1 3 6 5 4 4 4 3 2 0 1 1 1 1 1 1 2 3 3 2 1 3 3 3 2 2 4 3 1 3 6 5 3 2 3 1 2 7 11 10 6 5 6 7 9 11 13 15 16
17 13 12 12 12 12 13 12 12 13 15 15 11 7 4 5 4 4 4 6 9 7 8 8 8 8 10 9 8 9 10 7 2 3 3 2 2 1 1 2 3 4 4 4 4 2 1 1 1 1 1 1 2 2 2 2 2 1 4 4 4 4 3 3 4 3 1 3 5 4 2 3 3 1 3 7 11 10 7 6 6 7 8 10 12 13 15
17 14 12 12 12 12 13 12 12 13 14 14 10 5 3 2 3 5 5 6 9 7 6 7 9 10 9 8 8 11 10 5 1 2 2 2 2 2 1 0 1 2 4 3 2 1 1 1 2 2 2 2 3 3 2 3 3 2 5 4 4 4 4 3 4 4 4 3 3 2 2 2 3 1 2 6 10 10 8 8 8 8 9 9 10 12 13
18 14 12 12 13 13 13 12 12 14 15 15 12 9 5 3 4 7 8 8 8 6 5 7 7 6 5 5 8 10 10 5 1 2 2 1 2 2 1 1 1 1 1 1 1 2 1 1 1 2 2 2 3 3 3 4 3 2 5 4 3 3 3 3 3 4 3 2 2 2 2 2 3 2 2 5 8 9 8 7 7 8 9 9 9 10 12
18 14 12 12 13 13 12 13 14 14 15 16 15 12 10 11 12 13 13 10 7 4 4 5 5 3 4 8 8 7 8 5 0 2 2 2 1 2 3 3 2 2 2 1 0 1 1 1 2 2 2 2 3 3 4 4 0 4 5 4 4 4 4 4 4 4 4 4 3 2 3 1 4 5 4 5 7 8 7 7 7 8 8 9 10 11 12
17 14 13 12 12 12 13 13 13 14 15 16 15 12 11 12 13 15 14 10 5 4 4 4 4 3 6 7 4 3 7 6 2 1 1 2 1 1 2 4 4 2 1 1 1 2 2 1 1 0 2 3 2 4 5 2 4 6 6 5 5 5 5 5 5 5 5 4 3 4 4 3 5 5 4 4 5 5 5 6 7 8 9 10 11 13 14
16 13 13 13 11 11 12 12 13 13 12 11 11 12 12 11 10 12 12 9 5 4 4 4 4 4 6 5 1 3 7 5 3 3 3 1 1 1 1 2 3 2 1 1 1 2 1 1 2 2 2 3 3 5 4 1 5 7 7 7 8 7 6 6 6 6 5 3 2 2 2 4 4 4 4 4 3 4 5 6 7 9 10 11 13 14 15
15 14 14 12 10 10 11 11 11 9 7 8 10 11 10 9 9 10 11 10 8 6 4 4 4 4 5 4 2 4 6 4 2 2 2 2 1 0 2 3 1 2 1 1 2 1 1 1 2 3 2 2 4 3 2 2 3 8 8 8 9 8 5 5 7 8 7 3 1 3 4 5 4 4 4 4 3 4 5 6 8 9 11 12 14 15 16
14 14 13 10 8 7 7 8 8 7 8 10 11 9 7 8 8 8 8 9 10 10 8 6 5 5 5 4 3 4 5 3 2 2 1 1 1 0 2 3 1 2 1 2 1 1 1 1 3 4 2 3 4 2 2 2 2 6 7 8 9 7 4 5 9 9 7 4 3 4 5 4 4 4 3 3 4 5 6 7 9 10 12 13 14 15 16
14 13 11 8 5 3 3 4 6 7 8 9 8 7 6 7 7 5 6 7 8 9 9 7 7 8 7 4 4 5 4 3 4 2 0 1 1 1 1 1 1 0 2 2 2 2 2 2 2 3 3 3 3 2 2 2 2 3 5 8 9 7 5 8 10 10 6 4 3 5 5 5 5 4 4 4 4 5 6 8 9 11 12 13 14 15 17
12 11 9 6 3 2 3 4 5 6 6 7 7 6 6 7 6 4 5 6 5 6 8 8 9 10 9 6 6 6 5 4 4 2 0 1 1 0 0 0 1 1 3 1 2 1 3 2 1 2 2 1 1 1 2 4 5 6 7 9 8 7 7 9 10 7 3 0 2 5 5 5 5 6 6 5 5 5 6 8 10 11 12 13 15 16 18
9 10 8 5 3 5 7 8 7 5 4 6 7 5 5 6 6 4 4 5 4 5 6 6 7 9 9 8 6 4 5 5 4 3 2 1 1 1 2 0 1 2 3 1 2 1 3 1 1 2 1 3 3 2 1 3 6 9 10 10 8 7 8 9 9 6 2 2 1 4 3 2 4 6 7 6 6 6 7 9 10 11 12 13 14 16 18
8 9 8 8 9 9 9 8 7 6 4 5 6 4 3 5 5 3 4 5 5 5 6 6 5 6 8 9 6 4 4 4 4 4 3 1 0 2 2 1 1 2 2 2 2 1 3 2 2 1 3 5 4 1 2 4 7 9 11 11 9 8 8 8 8 6 2 0 2 4 4 2 3 5 7 7 7 7 8 9 10 11 12 13 15 16 18
10 11 12 12 12 10 6 4 7 6 4 4 4 3 3 3 4 4 5 4 3 2 6 7 5 3 4 6 6 5 4 3 3 4 3 1 1 1 2 1 1 2 1 2 0 2 2 2 1 2 4 5 3 1 4 6 7 9 11 11 10 9 9 7 6 5 2 2 3 4 4 4 4 5 7 8 8 7 8 9 10 11 11 13 15 17 19
11 11 11 10 8 5 2 3 7 6 3 2 3 3 3 3 4 4 4 4 2 2 4 6 5 4 4 5 5 5 4 4 3 3 2 0 1 1 1 1 2 1 1 1 2 3 1 1 1 3 5 5 1 3 6 7 7 9 10 11 11 10 9 7 5 3 2 2 3 4 4 4 4 5 7 9 8 8 9 9 10 10 11 12 14 16 18
9 6 5 5 4 2 1 2 5 5 3 3 4 4 4 5 5 4 3 4 4 3 3 3 4 4 4 4 4 4 4 4 4 4 2 1 1 2 2 1 0 0 0 1 2 2 1 1 1 2 5 4 1 6 8 8 8 9 10 11 11 10 8 7 5 4 3 3 4 4 4 4 5 6 8 9 9 9 9 10 10 11 11 12 13 14 16
6 3 2 3 2 3 2 2 3 4 4 4 4 5 4 5 6 4 2 3 2 2 3 3 3 3 2 3 4 3 3 3 4 3 2 1 2 2 1 1 1 0 2 2 2 1 0 0 0 2 5 4 2 7 10 10 9 9 10 11 11 9 8 6 5 5 4 3 4 5 4 4 5 7 8 8 9 9 10 10 11 11 11 10 11 12 14
4 2 2 2 2 3 3 2 3 4 4 3 3 3 3 2 2 2 3 2 0 1 1 1 2 3 2 2 2 2 3 4 3 2 1 2 3 1 1 1 1 2 2 2 2 1 0 1 2 4 6 4 3 8 11 11 11 10 10 11 10 9 8 7 7 7 5 3 4 5 4 3 5 8 9 8 8 8 9 10 10 11 10 10 10 11 13
3 2 2 2 2 3 3 3 2 1 1 1 1 1 1 2 3 4 3 1 1 1 1 2 3 3 3 2 2 2 3 4 3 1 1 2 2 1 1 2 2 2 2 2 2 1 1 2 3 4 5 2 5 9 11 12 13 12 11 10 10 8 8 8 7 7 6 4 5 6 5 4 6 9 10 9 9 9 8 8 10 11 11 11 11 12 13
3 2 1 2 2 2 3 2 1 1 1 1 1 2 1 2 3 3 3 2 2 2 2 3 3 3 3 3 3 2 2 3 3 2 1 1 1 2 2 3 2 2 2 3 1 0 2 3 3 5 5 1 6 10 11 13 14 13 11 11 10 9 8 9 8 8 7 6 7 7 6 6 7 8 9 9 10 9 8 9 10 11 12 13 13 13 14
4 3 2 3 3 3 3 3 2 2 3 3 2 3 3 3 3 3 4 4 3 2 2 3 3 3 2 3 3 3 3 3 3 2 2 2 2 2 2 2 2 2 3 2 1 1 2 3 4 5 5 2 7 11 11 12 14 13 12 11 10 9 9 10 9 8 7 7 8 8 7 7 7 8 8 9 10 10 10 10 10 11 12 13 14 15 15
5 4 4 4 4 3 4 4 4 4 5 5 4 3 2 2 3 3 5 5 3 2 2 3 4 3 1 2 2 3 3 3 3 3 4 4 3 2 2 3 3 2 2 1 1 1 2 3 3 4 4 2 8 12 12 12 13 14 12 10 9 9 10 10 9 8 8 8 9 8 8 7 7 7 7 8 9 10 10 10 11 10 11 13 15 16 16
4 4 5 7 6 4 3 3 3 4 4 4 3 2 2 1 2 3 6 6 4 3 3 3 2 2 3 3 3 2 2 2 3 4 4 3 3 3 4 4 3 1 1 1 1 1 2 3 4 4 3 2 8 13 13 13 13 14 13 11 10 9 10 11 10 9 9 9 9 10 8 7 6 7 8 8 9 9 10 10 11 11 11 14 16 16 17
4 4 4 6 8 7 5 4 4 3 2 2 1 1 2 2 3 5 6 5 4 2 1 0 1 3 4 2 1 1 1 2 3 4 4 3 3 4 4 3 1 1 1 1 1 1 2 3 5 5 3 3 9 13 15 14 14 14 14 12 11 11 11 11 11 10 10 10 10 10 10 8 8 8 9 10 10 9 9 10 12 12 13 14 15 16 16
Wind_Direction
355 356 358 360 359 357 356 353 349 346 344 346 352 350 330 315 311 303 282 262 283 300 282 249 250 258 274 290 280 272 270 271 285 277 206 213 214 201 172 159 157 152 150 149 152 152 148 162 168 162 167 165 150 169 178 178 174 180 186 164 152 191 203 175 161 176 185 163 177 210 223 216 209 208 210 209 203 202 213 216 188 193 204 191 204 214 152
355 356 357 359 358 356 354 350 349 348 341 339 346 341 316 298 283 278 277 273 281 290 289 290 288 290 295 294 291 287 266 256 286 300 243 220 202 161 136 129 126 139 151 151 149 147 146 161 163 165 170 154 135 173 179 179 179 185 185 169 163 180 198 184 166 170 182 184 191 203 210 215 217 210 208 212 206 199 210 220 190 195 204 199 210 217 156
356 357 357 358 358 356 353 352 354 354 345 339 342 331 312 305 273 248 265 274 271 269 280 292 287 299 310 309 325 343 299 228 285 318 297 273 292 140 111 99 122 144 152 143 140 146 144 145 151 160 161 123 134 182 181 179 184 187 182 174 170 183 201 194 187 181 185 195 199 197 196 200 214 214 208 211 209 201 202 204 196 206 204 200 214 216 141
357 357 358 359 359 358 355 352 356 360 356 346 341 326 313 317 304 255 267 266 260 261 266 269 272 304 325 329 343 2 15 46 321 308 313 41 346 332 101 128 146 150 152 141 140 148 140 133 147 154 146 116 144 175 179 184 187 174 167 175 175 189 208 204 215 210 199 206 195 179 185 190 200 209 208 210 210 206 205 206 209 214 207 207 217 209 159
358 358 359 0 0 1 357 353 356 1 359 351 347 336 317 310 321 335 318 282 266 271 271 272 289 306 321 336 337 352 15 31 40 336 324 332 326 357 102 138 153 156 158 147 139 147 142 129 136 144 133 115 136 158 175 188 179 149 158 186 185 195 196 203 228 242 105 116 128 145 189 198 198 202 205 208 209 210 213 215 217 213 209 211 203 192 184
359 358 1 3 1 2 360 357 359 4 6 3 356 347 335 326 324 332 336 324 304 313 317 313 315 315 307 307 328 355 21 24 17 352 299 295 327 21 115 124 142 157 161 152 141 150 150 132 125 132 129 128 140 152 173 185 167 152 178 192 191 214 193 192 216 213 87 55 80 118 196 207 207 209 208 207 209 212 214 216 220 216 215 212 176 183 205
359 360 3 5 2 1 2 3 5 8 10 11 12 13 359 339 325 323 332 323 300 307 317 315 320 338 339 317 346 7 23 21 12 341 323 29 26 10 90 112 122 150 164 165 153 145 143 139 135 132 130 136 148 155 166 182 178 179 188 184 193 224 190 174 205 214 185 122 88 110 203 211 217 220 217 213 212 213 213 215 219 216 218 224 181 186 208
360 1 4 5 3 2 4 7 9 11 11 13 19 23 14 356 338 325 326 320 308 319 329 325 328 4 15 14 10 11 17 22 24 15 16 42 32 17 60 87 105 131 146 153 135 86 51 113 140 141 135 140 155 159 164 175 180 188 188 171 187 215 174 160 200 220 201 178 170 218 226 230 230 226 224 222 218 215 212 214 217 212 216 224 208 201 208
359 2 5 5 2 2 4 6 9 12 15 14 9 12 7 358 351 334 327 323 328 340 347 342 343 11 18 10 3 2 9 16 24 37 37 42 40 23 32 45 89 117 112 99 81 42 12 40 88 117 124 134 147 152 164 167 170 185 188 171 180 203 191 170 200 223 208 189 197 219 233 250 244 236 227 221 221 221 217 214 210 206 211 214 211 218 214
358 1 5 5 1 0 2 4 8 11 16 15 2 359 357 349 351 349 328 309 333 346 348 356 7 12 356 352 354 356 0 6 10 31 51 49 35 2 358 2 69 105 84 56 29 353 335 358 32 40 49 97 125 118 163 170 171 179 181 175 185 196 202 191 197 216 208 180 184 215 234 242 240 238 233 223 218 213 209 203 196 203 215 211 210 226 212
357 359 4 5 2 0 1 3 7 10 14 11 355 348 346 342 342 340 325 309 344 347 348 9 19 359 340 344 350 350 354 4 10 22 41 30 11 356 350 356 44 83 50 6 338 324 313 134 105 108 92 101 131 136 159 169 174 178 179 181 187 193 207 207 192 211 206 173 159 211 231 234 226 110 8 285 216 200 199 200 197 204 215 217 224 226 177
355 356 2 4 2 1 1 2 8 12 13 10 356 344 341 340 331 329 329 319 338 347 356 2 352 340 339 346 349 348 356 6 3 359 359 357 359 359 0 14 34 47 0 342 335 8 139 136 135 138 125 107 117 131 148 163 172 181 184 186 182 188 205 208 193 215 207 168 173 217 228 228 94 80 59 27 356 211 208 208 203 202 204 204 215 208 171
354 354 358 2 2 1 1 3 8 12 14 15 9 357 356 358 345 334 334 310 326 347 340 321 331 345 356 359 354 350 0 6 2 5 8 351 359 13 26 32 34 33 12 3 353 165 148 141 143 147 144 132 122 119 125 142 167 190 196 198 190 187 197 200 202 216 204 178 200 220 230 115 115 105 126 135 113 187 190 203 208 202 202 206 209 207 189
353 353 354 359 2 1 0 2 6 11 15 18 18 14 14 15 358 336 338 324 320 328 313 306 332 350 358 2 0 357 4 11 19 46 50 11 359 23 42 42 33 25 13 2 261 181 150 143 152 152 156 162 152 133 121 114 130 190 206 211 205 198 195 192 198 212 215 214 212 211 264 185 181 171 176 178 171 171 185 220 217 199 199 203 200 192 177
352 353 353 355 359 0 0 359 2 8 14 17 22 22 19 16 9 345 331 319 305 315 339 345 336 335 343 359 6 3 10 17 16 44 82 72 51 55 37 8 58 69 356 321 202 162 144 153 160 159 169 178 172 161 155 131 104 151 207 216 214 214 209 199 198 199 213 233 224 212 229 233 210 155 161 173 176 181 203 247 219 188 189 192 191 179 167
350 351 350 352 355 358 0 358 358 3 9 14 19 18 11 15 16 1 325 316 303 323 359 355 330 320 328 345 0 3 9 14 0 351 118 95 80 83 61 29 72 83 350 298 176 152 173 169 160 162 167 167 162 155 162 164 134 114 160 195 204 214 218 216 213 199 200 226 231 222 230 231 189 136 146 168 184 194 212 234 213 177 180 185 185 178 171
346 347 347 349 350 355 358 357 355 357 2 9 14 11 1 7 10 6 342 326 304 293 315 332 329 326 332 346 5 8 4 7 359 349 80 66 58 82 91 61 75 70 341 296 180 159 174 162 166 171 142 102 164 162 158 173 158 127 144 176 192 201 205 214 221 213 204 217 230 232 232 191 121 125 135 153 167 185 216 220 202 154 179 185 183 177 173
341 342 344 346 346 350 354 354 353 353 354 1 8 11 359 354 2 6 351 332 312 289 302 327 324 321 330 339 341 345 350 359 9 350 40 86 48 47 51 48 104 80 352 313 188 153 155 153 173 171 136 79 278 199 161 175 174 152 156 169 180 189 194 206 217 219 209 212 230 239 221 115 99 125 136 138 148 203 231 217 125 122 182 188 186 181 174
337 338 340 341 342 345 347 349 349 348 348 353 360 5 0 350 356 1 352 336 303 295 314 323 308 300 310 316 313 317 332 337 327 321 327 105 41 358 339 61 85 56 353 320 218 143 163 163 146 191 163 158 200 250 156 173 185 160 161 170 180 187 191 201 214 221 216 213 229 239 228 128 112 127 134 147 177 219 232 191 72 141 168 175 188 188 177
330 332 333 333 336 340 341 343 344 342 343 346 350 356 359 350 349 354 353 339 303 303 319 328 313 301 297 291 287 288 295 316 356 349 7 55 11 318 237 147 86 54 305 258 200 258 201 156 129 251 194 141 139 259 165 151 180 175 175 190 190 184 194 203 206 214 222 219 218 232 247 164 147 143 141 194 228 312 53 137 108 153 158 164 180 185 179
322 326 327 327 329 333 335 337 337 336 338 340 343 348 353 348 345 348 349 334 301 295 316 328 324 318 304 284 278 275 276 283 320 339 341 357 353 330 263 90 37 12 358 340 255 196 355 76 116 149 173 107 152 225 171 156 170 130 354 283 223 181 210 226 209 198 219 226 212 228 339 148 160 154 127 202 167 18 357 282 132 149 159 161 170 177 179
315 316 320 321 321 325 328 330 331 331 331 334 337 341 343 344 343 343 342 329 302 297 312 327 336 352 8 355 331 302 288 280 271 283 299 313 337 335 306 64 60 61 32 0 292 171 90 30 172 153 144 146 172 178 203 230 184 139 135 241 240 85 19 293 247 203 238 262 237 28 27 149 165 136 28 36 47 10 350 330 84 149 165 163 163 168 173
312 310 314 315 314 317 320 323 325 325 324 328 332 334 338 343 343 341 340 331 318 322 335 353 12 22 16 2 351 346 339 313 278 259 264 273 309 0 28 72 80 84 82 76 283 290 329 6 342 332 178 270 249 197 203 227 216 153 166 204 212 44 43 303 280 293 283 275 147 66 10 176 178 161 37 42 316 4 7 349 57 152 165 160 156 163 170
312 308 309 310 310 311 313 316 319 319 318 322 326 329 334 341 342 340 339 330 323 331 339 346 355 1 0 356 353 357 356 339 320 290 238 231 234 325 66 90 102 114 127 158 255 284 288 307 320 294 264 13 288 253 220 214 214 200 220 204 169 140 171 232 260 273 240 219 139 110 41 195 192 196 164 102 215 236 354 347 17 141 159 153 149 159 167
312 306 305 305 304 304 307 310 313 313 313 315 320 325 332 338 338 337 338 330 323 328 322 315 334 354 0 3 3 356 352 343 333 326 274 243 239 251 276 165 233 270 154 219 264 265 250 246 258 251 231 128 264 275 251 223 216 17 258 246 149 139 184 232 244 232 232 249 88 108 194 228 206 205 196 165 195 222 266 293 85 119 151 155 158 167 170
310 305 301 300 300 300 301 304 306 308 307 309 316 323 328 334 335 335 347 347 320 296 283 300 323 339 346 355 6 1 355 348 340 342 335 302 251 235 243 253 268 290 288 273 271 255 249 259 266 258 260 116 251 289 335 316 343 274 264 320 82 131 193 221 237 238 241 243 180 162 202 213 205 209 207 192 179 201 232 233 198 148 153 162 176 187 186
310 305 299 295 296 296 296 299 302 303 302 303 312 319 320 328 335 337 7 10 333 292 286 311 317 324 331 343 7 10 7 344 319 321 337 330 290 249 245 247 257 272 266 250 243 240 243 243 245 265 0 72 239 280 329 339 307 264 253 160 132 194 226 209 225 243 243 233 87 99 243 218 159 194 208 207 207 211 214 213 199 177 173 176 177 182 187
312 305 298 294 292 290 292 295 297 300 299 299 307 315 313 318 329 315 349 8 351 311 296 303 309 318 328 350 3 6 4 333 283 256 283 319 305 279 265 246 243 252 254 247 237 229 230 230 216 82 76 108 227 220 211 246 256 259 250 168 173 229 270 247 250 262 272 33 27 357 293 327 78 122 196 205 212 218 215 207 199 188 187 186 180 178 181
313 303 298 294 288 286 289 290 292 298 297 296 306 318 308 299 304 278 291 343 347 321 300 300 305 314 321 325 347 360 355 338 276 216 222 270 297 317 303 246 240 240 246 258 263 254 235 90 31 34 138 201 242 217 194 218 233 233 113 132 178 232 281 289 295 312 45 29 4 343 316 354 30 61 191 199 206 208 206 206 201 192 192 192 188 185 183
313 304 298 294 287 284 284 285 288 294 294 296 310 316 271 259 273 255 269 333 347 335 311 305 308 313 316 321 341 357 353 344 314 203 203 226 256 256 188 227 242 234 231 248 262 265 216 140 107 60 120 167 255 264 228 237 248 137 113 139 189 211 218 244 276 286 294 338 335 317 307 341 334 279 197 202 205 201 199 203 197 190 191 191 190 190 188
314 306 299 293 286 280 278 278 283 287 288 292 300 292 244 239 233 219 248 325 343 333 303 290 291 298 306 318 339 352 356 356 302 196 190 206 230 218 187 205 279 235 241 251 231 196 198 146 147 151 148 182 263 281 260 260 267 137 130 153 191 202 211 227 242 250 267 305 309 264 243 283 295 282 184 205 209 204 206 209 203 198 196 192 190 192 190
312 306 300 293 285 277 273 272 275 278 281 280 273 259 251 261 248 241 261 301 325 320 298 294 295 299 311 319 329 347 1 9 161 178 154 160 226 231 187 132 116 176 212 231 177 157 105 62 161 175 168 198 256 270 257 263 274 120 130 151 169 179 198 208 204 212 223 207 197 219 238 236 234 225 198 206 209 205 206 206 202 202 199 189 188 191 190
312 307 300 294 286 276 267 266 268 271 276 277 272 263 254 250 252 257 263 280 304 304 284 292 295 290 311 316 320 345 2 6 90 181 147 122 184 237 195 172 159 118 103 126 179 113 112 180 194 162 157 196 245 268 267 264 134 110 133 157 159 157 164 161 161 169 172 173 193 259 312 267 219 225 221 205 200 201 201 201 197 192 186 181 183 188 190
312 309 301 295 288 275 266 265 267 268 271 273 272 268 254 242 247 253 251 254 281 280 251 269 285 289 304 304 299 4 6 359 351 334 20 75 72 290 216 183 186 184 94 90 156 153 152 183 266 202 168 182 222 262 266 241 134 133 153 163 156 155 156 156 161 167 167 176 225 283 294 254 222 222 210 187 190 194 189 190 190 180 175 180 186 188 189
312 311 304 298 289 276 267 266 268 269 269 265 258 256 252 245 247 245 229 218 236 255 240 243 255 283 310 304 273 29 5 353 346 347 347 349 336 315 273 213 192 174 71 67 182 190 148 68 306 268 181 171 215 245 257 220 148 159 171 170 164 165 165 164 172 174 173 189 260 279 222 193 186 178 161 161 184 191 173 172 180 178 179 188 191 189 188
314 311 307 300 291 281 274 270 265 254 242 234 235 241 243 235 229 221 206 203 223 249 268 278 261 268 302 307 306 337 336 328 331 339 304 274 292 232 256 266 193 102 55 257 218 204 72 51 284 263 203 211 250 259 323 358 176 179 181 176 171 171 171 171 172 170 171 187 190 144 145 153 156 155 155 160 176 179 173 177 185 188 191 194 191 189 189
316 313 311 308 299 285 273 265 251 229 220 224 229 233 229 218 216 219 219 226 238 243 249 266 271 268 281 297 302 306 313 326 343 339 255 266 348 90 256 282 25 100 225 222 157 42 23 257 272 272 244 263 293 323 20 342 221 186 181 176 170 168 167 162 162 158 152 146 146 146 151 158 158 158 166 175 178 181 189 195 195 195 196 192 187 186 188
320 320 322 322 310 274 236 229 225 221 222 220 214 216 217 212 216 226 220 221 234 232 228 239 257 257 255 261 265 269 292 333 327 307 126 31 322 191 207 281 19 308 249 182 96 16 281 210 238 274 268 281 302 295 253 241 208 173 173 170 166 168 171 165 163 162 158 156 167 170 173 179 182 185 189 187 186 195 201 200 197 195 193 189 184 183 181
324 327 329 328 306 239 232 235 228 225 227 211 199 203 204 198 204 209 187 183 205 211 205 221 245 246 240 243 253 254 263 281 285 273 90 39 14 72 218 242 97 267 265 166 102 304 262 206 197 259 261 260 349 321 263 231 201 181 172 166 165 168 169 166 167 168 161 179 200 187 188 203 211 206 196 188 192 202 200 196 194 192 187 184 184 184 183
327 330 333 326 287 260 262 259 248 239 221 196 194 204 203 194 199 200 174 177 200 199 191 215 241 240 238 251 261 247 239 255 280 310 335 0 28 337 291 305 109 265 274 97 97 270 281 283 231 256 315 19 31 26 334 200 182 173 169 166 165 165 163 168 174 171 122 48 165 182 189 223 225 213 205 197 197 201 199 196 193 188 184 183 184 185 188
329 330 327 314 301 293 283 264 240 221 201 190 194 210 212 198 200 206 197 204 215 199 190 212 236 224 218 230 240 237 237 253 277 291 290 299 60 284 280 78 111 264 273 74 85 267 271 277 268 288 9 18 14 23 142 152 156 162 166 166 163 160 160 170 183 183 168 316 236 212 209 214 209 208 208 204 201 201 197 192 189 185 183 185 184 186 192
312 313 310 309 310 312 303 249 206 192 192 204 205 207 206 192 191 204 214 227 243 195 184 203 234 242 202 206 221 237 245 241 238 248 251 206 131 275 289 102 194 254 309 66 51 261 251 249 275 7 31 22 13 121 153 153 153 158 162 163 161 160 161 169 187 197 212 262 248 221 213 214 213 207 202 198 199 198 191 187 184 181 181 186 190 194 200
312 312 308 308 311 321 321 214 192 186 195 215 198 194 203 198 195 203 209 213 225 207 183 191 218 239 222 210 217 228 232 230 233 244 257 152 137 223 252 231 233 270 27 61 246 255 265 270 308 20 22 10 1 167 163 158 151 154 162 168 169 167 167 176 193 201 209 231 224 209 205 211 212 201 191 191 194 191 182 178 177 177 181 192 201 204 206
323 317 307 304 294 268 204 181 185 191 209 213 195 195 195 190 195 205 197 173 177 185 177 183 214 226 208 195 203 213 217 219 222 226 227 170 172 216 242 246 192 79 319 244 248 263 315 292 289 357 3 355 209 177 172 164 158 160 167 172 174 174 176 183 190 191 193 210 208 195 190 198 198 187 183 189 195 192 182 177 180 186 194 202 207 207 205
322 297 273 287 257 205 185 174 187 204 220 214 205 209 208 199 199 199 165 134 154 172 157 167 228 244 204 183 203 221 213 195 193 198 208 205 205 219 255 13 40 254 253 261 260 249 240 218 145 20 9 5 176 179 178 175 172 170 171 171 173 178 182 187 194 196 199 204 195 183 182 190 188 178 176 183 192 194 190 188 192 197 203 206 206 205 206
307 270 270 290 255 212 206 201 194 202 209 206 208 224 231 213 168 108 90 90 139 195 152 176 250 250 224 197 202 210 204 200 196 180 201 231 224 192 62 13 259 242 252 268 264 245 304 20 44 32 17 10 180 180 181 181 180 177 178 179 179 181 187 194 198 196 193 194 191 185 180 176 173 172 173 177 184 189 193 192 190 190 193 195 197 200 202
285 266 270 278 250 221 215 216 212 212 228 264 289 319 14 67 84 84 76 58 343 321 313 279 251 239 235 245 246 209 195 203 205 170 188 232 218 119 118 239 241 232 242 256 246 231 355 16 32 32 19 6 188 183 185 188 187 185 186 188 187 187 192 197 195 191 192 196 193 185 176 166 165 168 172 176 179 183 189 187 180 180 186 191 196 200 202
273 263 234 244 254 226 200 204 212 170 139 90 57 81 108 135 125 100 62 20 344 313 278 245 233 226 213 219 238 233 190 188 195 184 184 227 192 146 188 229 235 219 229 244 256 1 25 21 19 9 359 317 191 186 188 192 191 189 190 191 189 191 197 196 191 189 193 194 190 185 177 168 165 168 172 177 180 183 187 184 177 178 186 194 198 200 200
252 249 238 256 274 261 234 242 250 183 150 132 112 122 149 165 142 88 35 6 335 302 268 237 243 250 202 180 212 235 215 199 197 180 174 202 206 191 203 224 217 206 213 221 260 334 2 17 7 350 341 276 192 188 190 193 192 190 191 192 190 192 193 190 187 190 194 191 187 185 181 175 173 173 174 177 180 183 187 186 184 186 190 192 191 191 192
239 241 238 242 253 239 214 223 228 192 162 151 144 140 142 139 116 67 18 359 343 305 228 202 218 243 225 180 217 226 209 195 194 186 191 201 198 185 207 228 225 208 188 164 192 283 328 356 351 338 332 247 193 188 188 191 192 190 189 189 189 190 189 185 183 187 191 188 185 185 184 183 182 179 177 176 177 179 183 187 189 192 194 190 186 185 185
230 241 243 242 246 244 224 226 233 211 183 164 141 98 48 45 60 24 3 351 322 256 216 191 203 229 213 207 219 217 176 167 193 205 208 202 184 190 219 230 223 202 172 162 194 253 314 339 336 330 324 230 194 188 187 190 191 188 187 187 186 185 185 185 186 188 187 185 186 186 186 187 188 183 179 179 179 177 181 187 189 191 191 188 184 182 183
221 241 254 248 243 245 251 261 262 248 221 180 119 47 11 0 358 354 348 338 312 279 255 132 240 224 212 210 235 215 166 173 195 208 209 195 186 212 234 235 173 145 188 211 229 259 296 325 330 329 321 208 187 185 185 187 186 185 185 187 186 184 184 185 187 188 186 184 185 184 185 194 202 193 184 186 188 185 183 185 185 183 183 183 181 181 184